Terug naar catalogus

STARLINK-4770

ActiefCommunicatieVLEO
NORAD 53849·PAYLOAD·🇺🇸 United States

Gelanceerd Sep 19, 2022 vanaf Cape Canaveral Space Force Station

Loading…

Volgende Passages (komende 24 uur)

TLE

VersSource: CelesTrak SupGP

Epoch: Sep 15, 2026, 00:58 UTC

1 53849C 22114AH  26258.04076389 -.00000075  00000+0 -24058-5 0  2584
2 53849  53.1581 149.4197 0001466  82.8725  59.0955 15.31696097    19

Volg STARLINK-4770 in realtime met AllMySat

Download on the App Store